User: anonymous   Login
Location: Penton Mewsey
(51.2167°N, 1.5167°W)
Time: 12:07:41
(UTC+00:00)
Language:

SL-8 R/B - Orbit

View from above orbital plane
View from above orbital plane
View from above satellite
View from above satellite

Ground track
Ground track

The orbit data is extracted from the following two-line orbital elements,

1 33066U 08031G   20190.75921892 -.00000149 +00000-0 +78533-5 0  9991
2 33066 048.4438 282.2337 0007627 164.6228 195.4916 14.69705480647083
Epoch (UTC): 08 July 2020 18:13:16
Eccentricity: 0.0007627
inclination: 48.4438°
perigee height: 656 km
apogee height: 667 km
right ascension of ascending node: 282.2337°
argument of perigee: 164.6228°
revolutions per day: 14.69705480
mean anomaly at epoch: 195.4916°
orbit number at epoch: 64708

The dashed part of the orbit path shows where the satellite is in the earth's shadow,  

DLR